GFSSGP_850_spd_333.txt.gz
Wind_Speed
3 6 4 3 5 4 7 3 7 3 4 6 12 9 13 11 6 4 7 6 4 7 8 11 11 11 12 13 13 13 14 14 13 11 11 10 10 9 8 7 6 7 7 6 6 5 4 4 3
2 4 2 3 5 7 1 4 6 8 11 12 10 9 7 3 7 4 5 10 3 5 8 9 10 11 11 13 12 13 14 14 14 13 12 11 10 10 9 9 8 8 8 8 8 8 5 4 3
4 0 5 4 3 6 7 8 7 8 8 8 8 9 5 8 10 6 11 7 2 3 5 7 6 9 11 13 13 14 15 15 15 14 13 12 12 11 10 10 9 9 11 11 12 5 4 3 1
1 2 4 6 7 2 7 11 10 14 13 5 8 11 3 7 8 11 8 5 1 5 7 11 10 10 11 13 13 14 15 15 15 14 13 13 13 12 12 11 11 13 13 9 2 3 3 2 1
1 3 5 5 6 4 6 9 12 12 13 10 8 10 8 7 12 8 6 4 2 5 7 9 9 10 12 13 13 14 15 15 15 14 14 14 14 14 13 12 12 11 5 4 4 4 3 2 1
4 4 5 6 4 3 6 7 10 10 9 8 9 11 8 6 18 12 4 3 3 3 7 7 10 11 12 12 13 14 15 16 16 16 15 15 13 15 15 14 13 9 6 6 6 4 3 1 1
5 3 4 6 6 5 4 9 8 11 9 9 12 9 7 12 20 14 5 3 5 5 5 8 10 10 13 13 14 15 15 17 17 17 17 16 14 16 16 14 11 9 8 7 5 3 1 1 2
3 3 3 1 5 5 5 8 5 10 12 10 8 9 12 16 20 14 7 6 5 9 8 9 10 12 12 13 15 14 16 19 20 19 18 18 17 17 15 12 12 10 9 6 4 3 1 2 3
1 4 3 3 4 5 2 6 9 10 14 12 9 12 13 15 17 16 8 8 8 10 9 10 11 11 12 12 13 14 15 18 20 20 20 20 18 18 16 15 12 10 8 7 5 3 2 3 3
5 3 4 4 5 7 7 8 11 10 12 14 12 14 14 15 15 14 12 10 9 9 10 9 11 13 14 19 13 13 10 16 23 24 24 20 17 18 17 14 11 9 7 6 4 3 3 2 1
1 3 3 2 4 7 10 10 5 9 9 11 15 19 18 16 13 13 13 11 12 11 10 11 11 12 14 14 18 17 6 14 6 26 26 20 20 18 16 15 13 11 8 6 4 3 2 1 1
6 3 5 4 2 6 11 13 12 13 9 8 11 13 13 13 10 11 14 13 14 13 9 8 10 14 14 11 11 20 26 25 25 10 18 16 17 17 16 14 12 10 8 6 4 3 2 2 1
7 3 5 7 9 13 14 16 14 14 7 9 9 9 10 11 11 11 13 15 15 12 12 10 10 13 16 11 9 5 12 19 20 13 10 13 16 17 16 15 14 11 9 7 5 3 2 2 2
2 8 11 9 9 10 10 14 4 3 8 10 9 9 10 10 13 13 14 15 17 17 12 12 11 12 15 13 13 11 7 6 9 11 15 9 12 19 18 16 14 11 9 7 5 3 2 3 2
6 8 8 10 6 5 6 12 10 4 8 9 10 11 11 10 12 13 16 18 18 19 17 13 14 13 15 15 16 12 10 9 5 5 6 8 16 13 22 16 13 11 8 6 5 4 3 4 3
5 5 6 8 4 4 3 14 7 3 7 10 10 11 12 11 11 13 16 18 20 19 17 13 13 13 13 14 15 14 15 16 15 11 9 13 15 18 17 14 13 11 9 8 7 4 4 3 2
6 8 7 5 5 3 8 11 5 2 8 11 10 10 11 11 12 12 15 16 18 18 17 14 10 11 10 11 16 14 12 12 15 12 16 13 12 11 17 9 12 13 10 9 6 5 4 4 3
9 7 6 9 4 7 13 18 16 7 8 9 8 8 9 11 12 14 14 14 13 14 13 10 6 3 7 7 10 12 13 15 19 13 16 16 18 19 14 11 13 17 12 7 6 5 4 4 4
9 10 14 13 7 7 15 17 15 13 9 9 7 6 6 8 11 13 14 13 11 10 9 6 3 7 5 8 6 6 8 8 10 11 15 18 23 18 16 12 17 13 15 12 10 5 3 4 4
9 12 14 12 7 6 14 18 17 15 13 8 6 3 4 6 9 12 14 14 13 11 8 5 1 7 9 6 6 5 5 7 8 6 9 14 18 16 16 15 16 18 19 19 16 12 9 3 4
10 13 14 15 12 14 15 17 20 14 6 7 5 2 2 5 8 11 14 17 15 14 12 10 7 3 3 5 5 7 7 6 7 7 7 9 12 11 10 15 17 18 20 21 18 9 5 7 7
11 5 10 11 8 6 1 9 14 9 10 10 7 5 1 4 7 10 13 17 19 18 15 12 9 6 3 2 4 4 6 7 7 7 6 7 9 8 9 10 14 19 19 18 12 9 8 7 7
3 3 4 8 11 13 13 7 6 3 12 12 11 6 3 3 6 9 12 15 19 21 21 19 15 10 7 7 4 3 4 4 6 8 7 8 8 8 6 9 13 16 17 16 14 11 8 8 8
2 4 6 5 6 7 15 13 9 6 3 8 11 9 6 4 5 7 10 13 17 20 23 24 24 22 16 10 7 5 4 5 4 4 7 7 6 5 3 5 10 13 14 15 15 15 14 8 5
5 6 3 4 4 6 6 7 14 6 4 4 11 11 8 5 3 6 9 12 17 20 22 23 24 24 24 22 18 12 7 4 3 2 4 5 6 6 4 4 5 10 13 17 19 17 15 12 7
7 8 5 7 9 12 4 6 3 5 3 2 11 11 8 6 4 4 7 10 14 17 19 20 22 22 22 22 21 21 19 13 6 2 2 4 6 7 8 7 8 9 12 17 22 22 19 15 11
2 6 6 11 10 6 10 18 4 4 3 6 9 11 11 8 5 3 4 7 10 13 15 17 18 18 18 19 19 20 20 17 15 11 6 4 6 9 11 12 13 14 13 15 17 17 18 16 13
6 5 4 4 6 15 14 17 12 6 8 9 12 14 12 10 6 3 3 6 8 9 11 12 13 14 15 16 16 16 16 16 15 13 12 9 7 9 11 13 15 15 16 16 18 16 15 17 14
5 4 7 8 8 13 16 13 3 1 7 12 16 16 14 11 7 3 2 8 10 10 11 11 11 10 10 12 13 14 14 13 13 13 12 10 10 9 10 13 15 15 17 18 17 18 17 19 17
4 8 12 10 17 14 13 16 5 2 5 10 16 16 14 12 9 4 6 9 11 10 11 13 14 15 14 13 11 11 12 13 13 12 12 12 10 10 10 11 14 16 17 18 19 19 19 18 18

GFSSGP_850_spd_336.txt.gz
Wind_Speed
7 9 7 7 3 3 6 6 7 9 6 17 15 9 9 11 7 2 6 14 10 3 4 5 7 5 5 7 9 10 11 11 10 10 10 10 9 8 7 6 7 7 7 5 4 3 5 4 4
6 7 5 5 3 3 5 11 13 10 11 15 14 13 14 10 14 4 11 15 4 2 4 1 4 5 7 8 8 10 11 12 11 10 10 10 10 9 8 7 7 7 9 5 6 5 6 4 3
7 6 6 3 2 3 4 8 8 13 11 7 8 13 11 9 16 12 14 13 5 1 2 2 2 3 5 7 10 11 11 12 12 11 10 10 11 10 9 8 8 9 11 10 6 1 2 4 3
4 4 4 2 6 10 6 9 14 11 12 12 11 8 8 12 10 12 12 9 6 2 6 8 8 4 5 7 10 11 12 13 13 12 12 12 12 11 10 10 10 11 14 11 8 7 4 3 3
6 4 3 2 4 5 8 11 13 7 6 13 12 9 10 14 14 12 11 8 7 5 6 12 7 7 7 9 12 12 13 14 14 14 14 14 13 12 12 12 11 12 10 5 4 5 5 4 4
5 2 3 3 8 8 7 13 11 11 15 13 11 14 5 14 20 22 13 9 5 7 9 9 10 7 10 11 16 14 14 14 14 15 15 15 14 14 14 13 12 11 5 5 5 5 5 4 3
5 2 3 6 4 2 5 9 11 8 12 13 8 7 7 18 21 22 14 10 10 10 10 10 10 9 9 9 14 13 12 13 15 16 17 17 16 16 16 14 13 9 7 7 7 5 4 3 2
7 3 2 4 5 4 6 8 2 6 7 10 5 6 14 19 17 19 15 10 11 13 13 11 9 9 9 11 14 13 12 12 15 19 20 19 17 16 16 14 12 11 10 9 7 5 4 2 1
4 3 2 4 1 4 6 4 9 11 12 11 7 4 12 12 16 15 18 19 15 10 10 13 10 10 10 15 15 12 13 10 11 17 22 21 21 18 19 15 13 12 10 9 7 5 3 2 1
4 3 6 5 6 5 11 9 12 8 13 13 10 14 16 17 14 12 12 13 14 13 10 9 12 14 12 15 11 9 6 4 8 6 18 23 24 22 19 17 15 13 10 9 7 6 4 3 3
3 3 6 3 7 8 8 10 10 11 8 9 10 13 15 13 11 10 11 14 14 14 9 12 11 12 12 14 12 14 20 26 24 23 30 20 22 20 18 15 13 12 11 9 7 4 3 3 3
3 1 5 6 3 5 8 13 12 16 18 6 7 9 12 13 12 12 15 15 16 14 14 8 10 11 16 14 12 8 12 13 18 29 29 23 5 14 13 15 13 12 10 8 6 4 4 4 4
6 6 7 9 8 10 12 12 12 17 16 7 8 9 10 12 13 13 14 15 16 17 15 13 11 10 11 13 12 8 7 7 8 13 13 17 11 9 12 11 11 11 9 7 6 5 4 4 4
7 10 14 11 9 10 9 11 11 1 2 8 8 10 11 11 15 15 17 18 18 16 16 15 14 13 9 10 13 13 10 6 3 5 7 1 10 10 14 15 13 10 9 6 6 6 5 4 3
6 6 8 13 11 4 5 8 10 8 3 7 8 9 12 12 12 14 19 21 21 19 16 14 14 12 13 9 12 13 12 7 2 3 6 10 1 16 8 14 21 15 8 5 6 6 5 4 4
3 5 4 7 5 4 1 7 7 4 2 6 9 8 11 11 12 14 19 20 20 18 17 14 11 9 10 10 11 12 11 10 6 4 3 2 2 3 13 13 16 11 12 4 6 7 6 5 5
5 4 5 4 4 2 5 8 2 5 5 7 9 7 9 10 11 15 16 18 18 17 15 12 8 6 4 8 10 14 13 13 11 7 8 10 9 9 7 6 5 10 8 12 6 5 4 5 4
7 4 6 3 5 6 8 14 12 21 10 6 6 5 6 8 11 14 15 16 15 15 12 9 6 1 2 6 8 9 10 13 14 12 11 14 14 14 12 9 11 11 10 10 8 3 4 3 4
5 7 9 9 11 1 6 12 13 21 10 7 8 2 4 6 8 12 14 15 15 14 12 9 5 2 5 3 5 4 5 9 13 13 11 14 18 17 15 11 9 9 10 9 11 10 7 4 4
6 8 9 10 4 4 9 15 14 22 21 12 2 3 4 6 9 12 15 15 14 15 12 12 8 0 5 6 5 4 6 6 6 5 7 12 15 17 15 13 10 10 12 11 13 12 11 10 7
5 6 7 10 10 7 11 13 9 9 15 12 6 1 3 6 9 11 14 16 15 16 15 11 9 5 3 6 5 4 4 5 5 6 5 8 12 11 13 12 10 12 13 14 17 19 16 10 7
5 7 8 8 6 3 4 6 4 9 5 7 7 3 3 4 6 8 12 16 18 18 17 13 9 7 4 1 3 4 4 5 6 6 6 7 8 10 10 8 10 13 16 18 20 16 9 7 7
1 5 5 5 7 8 5 4 3 6 6 6 11 7 4 2 4 7 10 13 17 20 21 20 16 10 9 9 5 2 2 2 6 8 7 8 8 9 7 6 7 10 13 16 15 13 12 10 7
7 6 8 5 3 2 6 4 4 3 3 7 13 9 7 4 3 5 8 12 17 19 22 23 23 23 18 12 12 10 8 6 4 4 6 6 7 9 7 4 6 9 10 12 13 13 13 12 9
1 3 4 4 1 5 6 5 4 4 4 2 11 13 9 5 4 2 5 9 13 17 19 21 22 24 24 23 21 17 12 10 8 4 2 2 5 6 5 5 4 5 7 10 12 13 12 11 10
3 3 3 4 3 8 12 5 4 2 3 2 11 12 10 8 6 4 4 5 9 12 15 16 18 19 20 20 20 19 18 16 12 8 5 2 1 2 3 4 6 5 6 10 13 16 16 16 17
2 3 1 1 4 2 4 7 2 3 1 3 7 11 11 11 8 5 2 2 5 8 10 12 14 14 15 16 16 16 16 15 14 12 9 5 3 6 8 7 8 8 9 9 11 14 17 15 15
3 3 1 1 3 5 5 12 13 7 6 6 8 11 13 12 9 5 2 3 6 6 7 9 11 12 13 13 13 13 13 13 13 12 11 9 6 2 4 7 10 10 10 11 11 12 13 12 12
2 1 3 3 2 3 6 8 6 4 3 8 12 14 14 13 9 7 5 6 8 8 9 8 8 9 11 12 12 11 10 10 10 11 10 9 9 7 5 5 6 10 12 10 12 13 14 13 12
3 3 2 3 10 7 9 21 6 4 4 10 9 14 14 14 13 9 6 8 8 8 8 10 15 16 15 13 12 11 11 11 11 10 10 10 9 9 8 7 6 8 11 12 11 12 13 13 13

GFSSGP_850_spd_339.txt.gz
Wind_Speed
7 6 5 6 4 5 6 3 2 12 5 11 12 5 4 11 3 1 11 18 11 9 5 5 9 7 8 6 6 7 7 7 7 8 9 9 9 8 7 6 7 8 8 6 6 6 7 7 7
7 5 5 3 5 4 2 2 9 5 8 11 11 14 10 3 19 3 14 17 11 12 10 4 3 2 2 3 5 6 6 9 9 9 9 10 10 9 8 8 7 8 9 6 7 8 8 7 7
8 7 5 3 3 4 4 4 6 13 14 12 4 7 5 10 11 9 14 12 10 7 10 5 6 4 2 4 8 10 7 10 11 10 10 10 11 11 10 9 9 9 11 12 8 7 4 6 6
8 3 1 4 2 5 5 4 12 9 6 12 5 5 8 12 8 14 15 10 11 9 12 13 19 10 7 3 7 11 10 12 14 13 12 12 13 12 11 11 11 12 15 14 9 6 3 5 7
6 2 3 2 3 3 6 13 12 6 7 13 9 7 6 15 16 20 16 9 12 13 13 13 12 10 8 8 6 11 11 14 13 13 14 14 14 14 13 13 13 15 17 13 8 9 8 7 7
6 2 4 2 2 4 7 12 10 11 11 13 7 8 6 14 20 21 17 9 8 10 15 14 13 12 8 8 10 8 8 11 13 13 15 15 16 16 16 16 15 18 13 9 10 10 9 9 8
3 4 1 1 4 4 3 9 8 5 9 7 11 5 2 20 20 20 18 12 12 12 14 14 13 11 11 11 10 11 10 11 11 11 13 16 17 18 18 18 17 15 10 10 10 10 9 8 8
4 3 2 3 2 2 1 4 6 7 3 11 8 3 7 21 17 14 16 15 11 11 10 15 12 15 15 15 13 18 17 10 12 11 12 14 22 21 20 21 17 14 10 11 10 10 9 8 8
3 4 2 3 4 2 10 6 8 11 8 12 7 13 14 16 16 16 17 16 14 11 11 11 13 12 15 18 17 15 17 25 8 3 8 19 2 24 19 15 15 12 12 12 11 10 9 8 8
4 3 3 3 3 3 7 11 13 6 11 10 13 13 16 17 15 16 19 22 20 15 9 9 11 13 12 15 14 17 12 14 17 13 29 32 21 11 21 21 14 13 13 13 13 10 7 6 7
6 3 2 7 6 6 8 10 14 11 4 1 5 11 17 17 16 17 18 19 20 18 15 11 11 10 9 10 12 10 6 7 16 20 27 22 20 14 7 14 14 14 13 11 9 7 6 7 8
3 4 3 3 5 4 5 9 13 10 8 1 3 6 10 14 17 18 19 21 23 21 17 13 12 13 13 10 8 9 9 9 11 11 8 9 11 14 23 4 13 11 11 9 8 6 6 7 8
1 5 6 6 8 7 9 8 8 19 19 9 6 8 8 11 15 17 18 20 22 21 18 16 12 13 13 10 8 7 8 7 6 7 7 4 7 6 12 10 9 9 8 8 6 6 7 7 9
3 7 13 10 9 5 4 7 5 4 5 6 5 6 5 9 12 17 21 23 24 22 20 17 15 11 13 13 9 10 9 7 2 4 10 10 2 7 2 15 12 12 9 8 7 6 7 8 9
4 4 7 8 9 3 4 6 5 13 8 5 3 5 6 9 13 16 20 23 23 20 20 16 15 12 10 13 11 12 11 7 4 5 8 14 4 5 6 3 7 15 15 9 6 5 6 7 9
2 3 5 5 8 2 5 7 5 2 5 6 5 3 5 7 12 17 21 20 20 19 17 15 13 13 9 10 10 12 10 10 8 7 8 7 8 8 9 4 3 12 12 11 9 3 5 7 7
5 1 2 5 0 2 2 7 7 7 12 12 7 0 3 5 13 18 20 20 19 19 17 14 11 10 7 5 8 9 11 12 11 8 7 9 10 6 5 7 4 7 5 5 9 10 5 5 6
1 3 5 4 3 3 6 11 7 20 20 21 7 2 5 7 12 17 20 19 18 17 14 12 10 6 4 5 7 9 12 14 13 12 11 13 12 11 9 8 8 12 14 6 14 17 9 6 6
1 1 3 5 8 5 5 8 11 20 22 11 9 6 9 9 9 15 17 17 16 14 14 14 10 3 3 7 6 8 8 12 10 10 11 13 17 12 12 13 13 8 12 9 14 19 15 10 7
3 3 6 7 4 7 10 16 17 18 16 12 11 11 7 5 10 13 15 16 15 15 12 11 11 6 3 2 4 5 7 6 5 5 6 10 14 17 15 13 11 8 9 8 10 14 16 13 10
3 3 4 5 6 5 8 7 6 4 15 17 12 9 7 7 9 11 13 16 15 15 15 12 10 7 4 6 5 6 7 8 6 5 5 6 10 11 12 13 11 8 8 10 15 12 11 12 13
2 4 4 6 6 2 6 5 6 6 5 6 6 7 5 2 5 6 10 14 17 18 16 11 9 7 5 3 2 3 5 6 6 6 4 6 7 9 10 10 8 7 10 13 16 17 16 15 12
2 3 4 3 2 4 5 2 7 3 2 3 8 10 7 1 1 4 8 12 15 17 19 19 14 9 8 8 5 3 1 1 4 5 5 6 7 8 8 8 7 7 8 14 18 18 17 15 11
3 3 5 1 2 3 5 3 5 3 4 3 7 11 8 4 2 3 6 9 12 14 17 19 20 21 19 14 11 10 6 5 4 2 3 3 5 6 7 7 7 8 9 12 15 13 14 13 11
5 5 4 6 4 5 3 3 7 4 4 5 7 10 10 6 5 2 3 6 9 12 14 16 17 19 20 20 20 18 13 9 8 8 4 3 1 0 2 4 6 5 7 9 11 11 12 13 13
1 5 4 4 3 7 2 5 4 0 5 7 4 11 8 7 5 3 2 2 6 9 11 13 15 16 18 18 19 18 17 17 14 10 8 5 1 2 3 2 1 2 4 6 9 11 12 12 11
2 1 2 3 0 3 4 5 5 4 3 3 2 6 7 6 6 5 3 2 4 7 9 11 12 14 15 16 16 17 16 15 15 13 10 4 1 1 1 4 3 5 5 6 7 9 13 15 16
3 1 3 3 2 5 5 9 5 4 6 6 6 9 9 10 10 8 8 5 5 7 8 10 11 13 15 15 15 15 16 16 16 14 12 11 9 6 3 5 5 9 8 7 8 8 10 11 10
3 2 1 2 3 4 3 7 1 6 6 7 14 16 16 14 18 14 11 8 6 7 7 7 9 12 14 14 14 14 14 14 15 16 16 15 13 10 8 4 4 8 7 6 8 9 9 8 9
3 5 5 4 5 4 3 18 9 5 6 16 20 20 20 16 18 14 11 11 9 5 6 9 12 12 11 12 12 11 12 14 15 15 16 16 16 15 12 10 7 6 7 6 7 8 10 12 11

GFSSGP_850_spd_342.txt.gz
Wind_Speed
5 3 2 4 5 6 3 3 3 7 5 8 8 6 8 11 3 0 9 15 16 17 15 11 6 7 6 7 6 7 6 6 8 9 10 9 9 9 8 8 9 10 11 7 8 9 11 10 9
6 3 5 4 5 4 2 5 6 3 5 10 8 9 6 3 19 6 15 18 16 15 17 16 13 9 8 8 4 5 6 6 8 9 10 11 11 10 10 9 10 11 11 9 10 10 10 10 9
5 7 5 4 3 4 3 3 2 10 14 10 5 12 6 9 13 17 18 17 15 16 15 14 17 23 28 13 5 8 6 8 9 10 10 11 12 12 12 11 12 12 13 12 9 11 11 10 8
3 4 5 5 5 7 4 3 4 8 10 13 7 6 6 14 10 19 18 16 17 15 17 16 18 13 9 9 12 5 9 14 12 12 11 12 13 14 14 14 14 14 16 16 12 10 10 9 9
6 3 5 5 5 1 2 1 13 6 4 13 11 3 5 16 15 18 21 17 17 17 16 14 13 11 22 20 13 9 13 12 13 13 11 13 15 15 16 16 16 16 18 22 16 12 11 10 10
4 3 5 3 5 3 1 9 11 6 9 13 10 3 7 14 15 19 22 21 17 18 16 13 12 13 10 13 22 16 12 12 11 12 11 12 14 17 18 18 18 20 22 21 12 11 11 12 12
6 4 4 4 3 2 2 4 9 5 7 5 12 2 1 18 14 13 18 19 19 16 15 14 14 13 13 12 8 16 18 16 13 8 4 6 14 12 19 20 19 22 20 13 11 14 13 12 12
4 5 3 2 2 2 8 2 6 10 3 12 8 4 5 15 13 11 16 19 16 16 16 15 13 14 15 14 13 12 13 18 19 21 22 17 17 11 3 24 23 21 16 13 14 14 13 13 13
3 4 2 1 2 3 7 5 7 6 7 5 4 6 6 14 17 20 20 20 19 15 16 17 16 12 10 14 10 10 9 13 19 29 31 33 31 34 20 18 24 19 13 14 15 15 14 13 12
6 4 2 2 3 3 1 5 7 6 11 5 8 7 10 17 23 22 22 24 23 23 18 17 17 17 14 10 10 11 8 11 11 13 16 16 21 19 17 8 20 15 17 16 15 13 11 11 11
3 3 2 4 4 4 4 7 9 6 3 2 5 12 16 21 22 21 21 23 26 25 22 18 17 15 16 13 10 10 8 9 8 9 8 13 7 6 14 18 13 17 15 16 14 12 11 12 12
4 7 4 2 3 3 4 6 9 4 4 2 5 6 9 13 17 20 23 25 29 29 26 21 17 16 14 13 11 9 8 8 8 6 6 7 6 7 10 11 15 15 12 12 13 12 12 12 12
4 5 6 5 6 4 5 6 5 15 15 10 5 5 6 10 13 18 21 25 27 28 25 22 18 16 16 14 10 9 9 7 5 5 6 4 4 2 3 5 10 11 9 8 10 11 12 12 12
3 6 11 9 5 2 2 4 3 2 3 1 3 3 6 10 13 19 24 26 27 26 24 21 18 16 16 14 12 10 11 8 4 0 4 4 1 6 5 4 9 14 14 9 10 11 11 11 11
3 5 7 4 3 3 3 3 3 8 4 5 4 3 4 8 14 20 23 26 27 26 24 22 17 15 14 13 10 10 12 11 8 7 5 7 7 3 6 8 4 1 13 16 9 9 10 10 10
4 4 4 5 4 4 4 6 5 2 3 7 10 3 2 6 13 18 22 25 25 24 23 21 18 14 12 9 9 9 11 11 12 11 9 8 8 9 9 6 3 2 1 13 14 12 8 8 9
6 1 3 6 5 1 4 7 7 4 13 19 12 4 0 4 12 18 23 24 24 24 23 21 18 13 9 7 9 9 8 11 11 9 10 9 9 9 10 8 9 9 10 2 9 14 8 6 9
1 2 2 3 5 7 4 13 10 20 18 23 10 6 3 6 13 18 22 22 21 21 20 19 18 11 8 7 7 8 8 10 12 14 15 12 13 12 10 10 10 12 14 7 13 16 16 9 9
2 1 2 4 5 5 1 7 17 22 13 15 7 7 4 8 12 16 18 19 19 19 19 18 19 16 11 8 8 9 8 8 9 13 15 15 16 16 14 15 12 12 17 9 13 17 17 15 7
2 2 4 5 5 3 6 10 6 7 5 5 11 7 1 6 11 14 15 17 18 19 17 16 15 15 12 9 6 5 7 9 4 6 11 14 15 18 18 17 16 13 15 12 13 15 19 18 15
4 2 3 4 7 2 6 6 7 5 8 7 4 1 2 7 10 12 14 16 17 18 19 17 14 14 12 10 11 9 8 9 9 6 7 9 7 11 14 15 14 13 11 14 16 16 14 18 20
2 2 2 4 5 2 5 4 6 6 4 4 3 1 3 8 9 9 11 13 16 19 18 17 14 11 11 10 8 7 8 8 7 7 6 6 7 8 10 12 14 13 14 15 16 16 14 13 15
3 2 3 1 1 3 5 3 7 4 3 5 10 3 2 5 7 8 8 10 13 15 18 19 20 17 13 12 10 8 6 5 3 3 4 5 6 7 6 9 11 13 14 15 17 17 17 16 16
3 3 6 4 2 3 3 3 5 3 4 5 8 5 4 3 5 5 4 6 9 12 14 16 18 20 21 20 16 13 13 10 6 3 2 4 3 2 4 7 9 13 13 16 16 20 18 18 16
6 6 4 6 4 4 3 2 7 5 4 5 11 10 8 4 6 5 4 4 6 9 12 14 17 19 20 21 21 21 18 13 13 15 11 5 4 4 3 3 4 10 13 14 16 18 17 16 16
3 4 5 5 3 4 4 4 2 3 7 11 15 7 3 7 8 8 8 6 6 8 11 13 15 17 19 21 22 21 21 20 19 15 12 13 10 7 3 4 3 4 5 8 11 12 13 13 13
1 2 3 4 1 3 2 5 7 1 11 15 15 15 12 13 14 13 10 9 8 8 9 10 11 14 17 20 21 21 21 20 20 19 16 11 8 7 6 6 2 5 7 6 7 9 9 11 13
2 4 3 3 2 5 4 3 5 5 5 9 18 23 27 26 23 16 14 12 9 8 8 8 10 14 17 18 19 18 19 19 20 19 18 17 16 12 6 4 5 9 6 5 7 8 9 11 14
2 1 4 3 4 4 3 4 6 4 7 7 17 30 32 33 28 19 16 13 9 6 7 8 14 17 18 19 17 15 16 17 17 17 18 18 16 14 13 10 4 3 9 8 7 8 9 9 9
3 5 5 4 5 4 3 11 7 9 7 19 23 27 26 27 27 19 16 10 10 17 18 16 16 16 13 10 11 12 12 13 14 16 17 17 17 16 14 13 11 7 8 8 8 10 10 12 11

GFSSGP_850_spd_345.txt.gz
Wind_Speed
3 2 1 2 5 6 3 3 2 6 7 7 7 8 8 10 3 4 26 22 24 25 23 22 21 21 33 25 10 11 10 10 10 11 11 10 10 11 11 10 10 11 12 10 9 10 11 10 9
3 2 4 4 5 4 3 2 3 2 7 8 8 5 9 3 20 9 27 26 21 21 21 21 21 19 17 35 30 9 10 9 7 9 11 11 12 12 11 10 11 12 14 11 11 12 13 11 10
4 5 4 4 4 3 3 1 4 7 14 13 3 10 5 12 13 16 20 22 19 20 23 22 21 21 17 15 32 29 14 7 5 6 9 12 12 13 12 12 12 13 15 12 12 14 14 12 11
1 4 7 5 5 1 4 1 2 5 11 16 5 5 6 11 10 15 18 22 24 23 22 21 22 20 17 18 23 33 16 12 10 9 7 8 11 13 14 15 15 15 15 15 14 15 14 12 11
5 4 5 4 2 2 1 2 5 5 2 11 10 2 4 12 9 13 20 23 25 25 22 20 18 20 20 22 18 14 24 21 18 13 14 9 9 12 13 17 18 18 18 19 19 16 12 12 12
5 3 5 2 3 1 1 7 4 5 6 9 7 1 3 10 13 18 19 22 22 23 23 20 17 16 16 14 19 18 20 23 25 20 11 6 10 11 8 15 21 21 22 24 20 15 14 14 13
6 4 4 4 5 1 3 3 5 3 5 6 6 2 3 13 16 18 20 19 20 20 19 20 19 18 17 15 13 11 13 14 18 20 28 36 34 32 42 21 22 28 28 28 21 18 14 15 15
4 5 4 5 1 1 6 2 2 7 2 4 5 4 4 17 19 20 20 20 20 21 21 21 19 16 16 16 12 13 12 11 13 16 16 22 34 34 30 29 24 40 31 25 23 19 16 15 15
3 5 2 2 0 2 5 3 4 3 5 4 4 6 8 13 19 25 26 25 24 22 24 24 22 19 16 15 13 13 12 12 12 12 11 11 12 29 17 22 1 12 18 20 18 17 16 17 15
6 4 3 2 3 1 3 4 6 6 10 2 4 7 10 17 25 28 28 29 29 30 29 25 22 21 19 16 13 11 12 11 11 13 13 11 10 3 7 10 16 8 12 17 16 17 17 15 14
3 4 4 2 3 3 2 4 7 5 3 4 6 10 12 18 23 25 27 29 33 34 32 27 21 19 18 18 16 12 10 10 11 11 12 12 9 4 2 4 11 20 18 20 15 15 16 15 14
5 6 3 2 2 4 5 6 9 3 3 3 7 7 10 15 19 25 28 31 34 32 30 27 23 19 18 17 16 14 10 10 11 10 11 10 6 5 6 11 11 10 15 14 11 13 15 15 13
5 4 3 4 8 5 4 5 4 8 10 5 4 6 9 13 17 21 24 29 32 31 30 27 24 21 18 17 15 14 11 10 9 8 8 8 3 4 6 7 12 7 15 20 11 10 13 14 13
2 3 6 5 4 2 3 3 5 5 4 5 5 7 10 13 18 22 27 32 33 30 28 27 24 21 18 16 13 13 13 14 10 7 6 6 4 8 6 5 7 11 13 18 15 9 12 13 12
2 4 4 12 6 4 6 3 2 5 5 5 8 9 10 12 15 23 28 30 31 30 28 27 25 22 18 16 11 10 13 16 13 10 6 5 2 4 7 5 4 9 11 12 16 14 11 12 12
5 5 4 7 10 7 6 5 3 7 10 12 14 10 8 9 16 22 27 31 30 29 28 26 25 22 17 15 12 13 11 13 13 13 9 5 1 4 3 7 6 6 6 10 17 18 13 11 11
7 3 5 4 11 6 10 7 6 21 22 20 16 5 3 9 15 23 27 27 28 28 28 26 25 22 16 14 12 13 13 10 12 12 12 10 6 6 5 5 6 8 9 10 12 18 16 11 11
3 3 3 2 7 6 4 8 12 22 14 14 8 1 6 12 19 22 23 25 26 26 25 24 23 23 19 14 11 11 12 10 11 11 13 16 14 13 11 9 9 8 9 9 15 16 18 13 11
5 3 1 2 1 4 2 7 10 15 15 15 7 5 8 13 17 20 21 23 23 24 25 25 24 23 22 17 13 11 12 10 9 14 14 15 19 19 16 18 16 15 16 12 14 15 17 18 13
4 2 2 4 2 2 6 8 5 9 7 11 7 7 10 13 16 18 19 20 22 24 24 24 23 20 20 17 13 13 9 10 12 14 9 12 15 17 19 21 20 19 17 19 14 16 19 19 16
3 5 1 3 6 3 4 4 6 2 5 8 8 7 9 13 17 18 18 19 20 23 26 26 24 20 18 18 14 12 11 10 12 12 13 10 12 10 17 17 16 15 18 19 17 17 17 21 22
2 3 2 2 3 1 4 3 5 5 6 10 12 9 10 12 15 17 18 17 18 19 20 23 25 24 20 17 16 14 12 12 10 10 10 11 10 9 10 13 13 11 14 14 15 15 16 16 18
2 1 2 1 3 2 5 4 6 4 6 7 17 17 12 12 15 17 17 15 16 17 19 20 21 23 25 25 24 20 20 17 13 12 8 6 7 8 8 9 8 11 12 12 16 17 17 16 15
2 3 5 4 3 3 3 3 5 3 3 6 21 23 13 14 15 15 15 15 14 14 17 18 20 22 24 26 26 27 25 20 21 19 18 15 11 8 7 8 7 5 12 13 16 18 17 15 14
5 5 4 6 5 4 0 1 6 2 5 4 11 19 16 14 17 17 16 17 16 15 16 18 19 21 23 24 25 26 25 25 22 22 22 22 15 14 13 10 9 5 3 11 15 17 19 19 15
4 3 5 4 1 4 2 4 2 6 15 19 22 22 22 24 25 21 19 18 17 14 13 14 16 20 23 26 27 26 25 24 23 23 23 17 19 17 13 14 11 9 7 6 9 15 19 21 16
1 3 2 6 2 3 2 5 3 4 10 19 23 26 27 26 29 25 23 18 14 12 11 12 13 17 21 25 28 27 25 23 21 20 18 21 21 16 13 11 9 10 11 9 7 11 11 11 12
2 4 4 4 1 5 4 5 5 2 6 7 19 22 24 24 26 26 26 16 12 10 10 14 19 21 28 34 28 24 22 21 20 20 20 17 16 16 15 11 8 9 9 11 9 8 11 12 13
1 1 5 4 4 4 2 5 5 7 3 6 14 20 21 23 24 26 23 17 14 11 10 20 26 23 20 18 17 15 16 18 19 18 18 18 17 14 15 14 10 7 9 8 10 11 8 11 11
3 5 5 4 5 3 2 6 7 9 5 13 16 19 21 20 24 26 22 10 9 10 17 17 12 13 17 20 18 16 16 17 18 17 16 17 17 16 16 15 14 13 10 8 8 11 14 10 10

GFSSGP_850_spd_348.txt.gz
Wind_Speed
4 3 4 4 5 6 2 2 3 6 6 5 6 13 11 15 3 3 17 24 24 25 27 27 27 27 26 25 27 42 36 18 12 13 13 13 12 12 12 12 12 12 12 14 13 12 12 12 12
5 4 5 5 5 4 4 3 3 3 6 4 6 5 9 3 18 4 22 26 25 26 25 23 23 22 22 23 30 29 35 35 15 3 10 11 11 11 11 13 14 14 14 16 12 14 15 14 12
6 6 5 4 4 3 2 2 4 3 11 10 4 11 5 9 11 9 18 21 23 26 26 22 22 21 19 21 17 26 28 30 32 21 15 6 5 5 8 13 16 15 16 17 14 16 16 15 14
2 5 8 5 6 3 3 4 5 6 8 15 5 7 7 13 5 14 20 23 26 27 26 23 19 16 16 18 15 17 17 17 22 40 37 19 6 14 11 2 15 16 17 19 18 18 17 16 13
6 5 5 5 3 2 3 3 6 4 3 10 6 2 5 11 12 15 22 24 25 24 24 23 20 17 13 14 18 17 18 19 20 22 35 32 24 32 36 22 10 17 18 21 20 21 19 17 14
5 4 5 3 2 2 2 9 3 6 8 9 5 3 4 12 16 21 22 23 24 24 23 21 21 19 16 13 11 11 13 15 17 15 18 24 32 43 40 40 20 17 20 24 26 24 20 15 14
7 4 4 5 4 3 4 7 6 6 8 8 5 3 2 12 19 23 25 24 24 25 25 23 21 20 18 14 12 12 13 13 12 12 14 13 16 29 25 28 35 18 18 30 33 26 21 17 16
5 5 4 3 2 2 6 3 7 11 4 8 10 5 4 17 20 23 24 26 29 30 29 26 23 20 18 17 14 14 12 11 13 13 12 14 11 13 12 25 21 12 10 10 27 23 22 17 14
5 5 3 2 3 2 4 5 5 4 8 6 8 9 10 15 20 24 31 30 33 34 32 30 26 21 19 16 15 15 15 12 11 13 16 12 11 12 12 4 9 16 12 8 19 21 19 15 14
7 4 2 0 3 2 3 4 7 5 9 6 8 9 12 17 22 28 33 36 39 39 34 30 28 23 20 18 16 15 12 11 12 13 15 15 12 11 9 11 10 3 10 18 14 16 16 13 13
4 4 4 4 5 4 3 4 4 6 5 6 8 14 15 19 23 29 31 35 38 37 33 32 29 27 22 19 18 15 12 11 11 12 14 14 11 8 8 12 11 12 14 6 13 18 11 9 10
6 6 3 3 5 3 3 4 4 9 6 6 9 10 13 18 24 29 33 36 38 36 33 32 30 28 24 20 17 16 13 11 13 12 12 13 10 6 9 13 13 12 9 10 11 18 17 10 11
5 2 5 5 5 6 4 6 3 8 9 9 6 8 14 18 22 26 31 35 36 36 35 33 31 29 26 21 17 15 16 14 15 14 13 13 11 7 9 13 13 10 9 11 18 22 18 13 10
4 7 8 8 5 9 5 3 3 8 5 6 9 12 14 19 23 26 32 36 37 36 36 35 33 31 27 23 17 15 16 15 16 15 14 13 11 9 9 11 10 8 6 13 18 17 14 11 11
5 5 5 16 9 4 6 5 3 6 6 10 14 11 13 17 22 29 31 34 36 36 36 35 34 32 27 23 20 18 20 18 15 14 18 13 9 7 11 8 5 6 7 10 14 16 16 15 12
5 5 4 6 15 4 4 2 2 19 19 15 10 10 13 18 24 27 30 32 33 34 34 34 32 31 28 21 18 19 18 18 13 14 15 13 10 11 9 7 7 6 7 8 11 15 17 15 14
7 4 4 2 7 6 7 3 5 22 18 17 15 15 15 18 23 28 29 31 32 32 33 32 32 32 29 21 17 16 18 18 15 14 14 12 14 13 9 10 8 6 8 9 9 12 13 15 16
3 5 2 0 6 7 7 6 9 20 21 19 16 14 17 21 25 26 28 28 29 31 31 31 30 29 30 25 17 14 15 16 15 16 16 14 15 17 17 14 13 9 9 10 14 15 18 18 16
6 5 3 2 1 4 3 6 7 14 21 18 15 16 18 21 22 23 25 26 28 29 31 35 34 30 28 29 28 20 19 16 17 18 17 16 17 17 17 17 18 15 14 15 16 17 18 19 18
4 4 1 1 3 1 5 5 4 11 8 13 13 15 17 20 23 25 25 25 26 28 30 32 35 33 29 26 24 22 18 17 17 16 17 16 16 13 13 11 17 17 18 16 17 20 19 18 18
2 5 2 1 3 2 4 4 5 3 10 21 18 14 13 17 21 24 26 26 26 27 29 30 31 32 33 30 24 20 16 17 18 20 18 17 14 13 12 11 9 15 13 15 18 18 18 20 21
3 2 3 2 2 1 4 3 1 2 8 17 24 20 16 18 19 21 23 25 25 24 23 25 26 28 31 32 33 28 24 27 27 27 22 18 16 14 10 8 9 7 9 13 17 15 17 17 20
3 3 3 2 3 3 6 4 3 1 7 6 22 22 18 17 19 19 19 20 21 20 21 20 21 23 26 31 34 32 30 26 21 24 25 23 21 19 16 11 8 7 6 11 14 13 14 15 16
5 5 5 4 2 3 3 2 3 2 2 4 14 17 17 17 19 19 18 18 19 17 17 17 18 20 24 27 34 36 34 32 30 29 29 31 27 24 20 16 13 10 5 8 12 16 13 14 12
2 4 3 5 5 4 4 3 4 5 4 3 4 13 16 18 21 22 23 20 17 16 16 15 14 16 22 28 35 36 29 31 30 30 30 29 26 23 24 19 15 15 13 7 7 10 17 11 13
3 3 5 5 2 4 3 5 4 7 10 7 8 11 16 19 23 26 26 24 16 15 14 13 14 20 29 32 34 30 27 29 30 28 27 27 26 25 24 18 14 14 14 11 9 10 11 16 15
2 3 3 7 2 4 3 5 2 5 3 8 12 17 23 24 25 28 27 23 15 13 11 9 17 24 28 27 24 22 18 22 24 25 25 24 23 25 23 21 14 11 13 15 14 9 10 12 12
1 5 3 3 2 4 4 6 5 7 2 6 12 19 18 20 23 24 25 20 12 9 7 12 18 20 20 19 20 21 21 19 18 20 21 22 21 20 20 19 18 14 11 11 13 13 12 7 5
1 1 4 4 4 4 2 6 5 7 5 2 7 11 15 16 20 23 22 20 12 10 11 15 13 15 14 19 22 22 21 22 21 20 19 19 18 18 19 20 18 17 14 11 9 13 13 12 7
2 6 5 4 5 2 3 6 3 10 9 3 5 9 9 11 15 16 15 14 10 10 10 12 11 14 20 20 21 23 21 19 18 18 17 17 18 18 18 19 19 19 18 15 13 10 12 15 12